This demonstration page uses our WeatherBlox Daily Observations layout. Learn more.

Left ArrowRight Arrow

Hourly Observations for August 29, 2017

Temp ( °F °C ) Dew Point ( °F °C ) Humidity (%) Winds ( mph kmh ) Pressure ( in mb ) Visibility ( mi km ) Precip ( " mm )
12:51 am 00:51 Clear 80 26.7 52 11.1 38 38 SSW 8 13 29.88 1012 10 16.0934 0 0
1:51 am 01:51 Clear 78 25.6 53 11.7 42 42 SSW 3 6 29.86 1011 10 16.0934 0 0
2:51 am 02:51 Clear 74 23.3 54 12.2 50 50 E 8 13 29.88 1012 10 16.0934 0 0
3:51 am 03:51 Clear 74 23.3 53 11.7 48 48 E 8 13 29.91 1013 10 16.0934 0 0
4:51 am 04:51 Clear 70 21.1 53 11.7 55 55 ESE 7 11 29.94 1014 10 16.0934 0 0
5:51 am 05:51 Clear 71 21.7 54 12.2 55 55 SE 8 13 29.94 1014 10 16.0934 0 0
6:51 am 06:51 Sunny 74 23.3 54 12.2 50 50 SE 9 15 29.96 1015 10 16.0934 0 0
7:51 am 07:51 Sunny 78 25.6 55 12.8 45 45 SE 14 22 29.96 1015 10 16.0934 0 0
8:51 am 08:51 Sunny 82 27.8 56 13.3 41 41 SSE 8 13 29.97 1015 10 16.0934 0 0
9:51 am 09:51 Sunny 86 30 54 12.2 33 33 SSE 6 9 29.97 1015 10 16.0934 0 0
10:51 am 10:51 Sunny 88 31.1 54 12.2 31 31 S 6 9 29.94 1014 10 16.0934 0 0
11:51 am 11:51 Sunny 91 32.8 53 11.7 27 27 S 9 15 29.91 1013 10 16.0934 0 0
12:51 pm 12:51 Sunny 93 33.9 54 12.2 27 27 VRB 5 7 29.87 1011 10 16.0934 0 0
1:51 pm 13:51 Sunny 94 34.4 52 11.1 24 24 VRB 6 9 29.84 1010 10 16.0934 0 0
2:51 pm 14:51 Sunny 96 35.6 52 11.1 23 23 S 8 13 29.8 1009 10 16.0934 0 0
3:51 pm 15:51 Sunny 97 36.1 51 10.6 21 21 SSW 8 13 29.77 1008 10 16.0934 0 0
4:51 pm 16:51 Sunny 96 35.6 49 9.4 20 20 WSW 6 9 29.78 1008 10 16.0934 0 0
5:51 pm 17:51 Sunny 95 35 48 8.9 20 20 VRB 5 7 29.76 1008 10 16.0934 0 0
6:51 pm 18:51 Cloudy 93 33.9 50 10 23 23 S 6 9 29.77 1008 10 16.0934 0 0
7:51 pm 19:51 Mostly Cloudy 90 32.2 47 8.3 23 23 NE 20 31 29.82 1010 10 16.0934 0 0
8:34 pm 20:34 Cloudy with Nearby Thunderstorms 84 29 52 11 33 33 NE 24 39 29.8 1009 10 16.0934 0 0
8:49 pm 20:49 Cloudy 81 27 54 12 39 39 NE 26 43 29.85 1011 10 16.0934 0 0
8:51 pm 20:51 Cloudy 81 27.2 54 12.2 39 39 NE 23 37 29.89 1012 10 16.0934 0 0
9:51 pm 21:51 Mostly Cloudy 76 24.4 60 15.6 58 58 N 3 6 29.88 1012 10 16.0934 0 0.0254
10:51 pm 22:51 Mostly Clear 78 25.6 56 13.3 47 47 S 13 20 29.85 1011 10 16.0934 0 0.0254
11:51 pm 23:51 Clear 78 25.6 55 12.8 45 45 NNW 8 13 29.84 1011 10 16.0934 0 0

Powered by AerisWeather